Hourly Data Report for February 09, 2015

All times are specified in Local Standard Time (LST). Add 1 hour to adjust for Daylight Saving Time where and when it is observed.

GERALDTON A
ONTARIO

49°46'58.090" N
86°55'50.050" W
348.40 m
6042716
71834
YGQ

Download Data

Hourly Data (February 2015)
Hourly Data Report for February 9, 2015
Temp Definition
°C
Dew Point Temp Definition
°C
Rel Hum Definition
%
Wind Dir Definition
10's deg

Wind Spd Definition
km/h
Visibility Definition
km
Stn Press Definition
kPa
Hmdx Definition


Wind Chill Definition


Weather Definition


TIME
00:00 -26.6 -29.5 76 11 4 24.1 98.30   -31 Mainly Clear
01:00 -28.2 -30.9 78 17 4 24.1 98.27   -33 Mainly Clear
02:00 -28.2 -30.8 78 1 4 24.1 98.23   -33 Mainly Clear
03:00 -29.7 -32.6 76 31 6 24.1 98.25   -36 Mostly Cloudy
04:00 -30.6 -33.6 75 33 4 24.1 98.25   -35 Mainly Clear
05:00 -30.1 -33.1 75 31 7 24.1 98.24   -37 Mainly Clear
06:00 -30.1 -33.1 75 31 4 24.1 98.23   -35 Mostly Cloudy
07:00 -30.0 -33.1 74 31 4 24.1 98.25   -35 Mainly Clear
08:00 -26.8 -29.8 76 32 4 24.1 98.29   -31 Cloudy
09:00 -25.5 -28.6 75   0 24.1 98.25     Mostly Cloudy
10:00 -23.1 -26.4 74   0 24.1 98.23     Cloudy
11:00 -20.1 -24.5 68 22 6 24.1 98.21   -25 Snow
12:00 -16.9 -22.1 64 21 6 24.1 98.18   -21 Cloudy
13:00 -14.6 -20.5 61 31 9 24.1 98.12   -20 Cloudy
14:00 -13.1 -18.8 62 24 11 24.1 98.05   -19 Cloudy
15:00 -12.5 -18.2 62 25 11 24.1 98.03   -19 Cloudy
16:00 -11.8 -17.1 65 26 11 24.1 98.00   -18 Snow
17:00 -12.0 -16.6 69 27 7 24.1 98.02   -16 Snow
18:00 -13.2 -16.7 75 28 6 24.1 98.09   -17 Mainly Clear
19:00 -15.0 -18.1 77 30 11 24.1 98.19   -22 Mainly Clear
20:00 -15.9 -18.9 78 29 7 24.1 98.24   -21 Clear
21:00 -18.0 -20.5 81 23 4 24.1 98.26   -21 Clear
22:00 -20.4 -22.4 84 29 4 24.1 98.26   -24 Clear
23:00 -21.6 -23.6 84 28 6 24.1 98.28   -27 Clear

Notes on Data Quality.

Legend

  • E = Estimated
  • M = Missing
  • NA = Not Available
  • ‡ = Partner data that is not subject to review by the National Climate Archives
Date modified: